SCP
0 0 0 0 0 0 0 0 0 0 0 0 0 0 0 0 0 0 0 -0 -0 -0 -0 -0 -0 -0 -0 -0 -0 -0 -0 -0 -0 -0 -0 -0 -0 -0 -0 -0 0 0 0 0 -0 -0 -0 -0 -0
0 0 0 0 0 0 0 0 0 0 0 0 0 0 0 0 0 0 -0 -0 -0 -0 -0 -0 -0 -0 -0 -0 -0 -0 -0 -0 -0 -0 -0 -0 -0 -0 0 -0 -0 -0 -0 -0 0 0 -0 -0 -0
0 0 0 0 0 0 0 0 0 0 0 0 0 0 0 0 0 0 0 -0 -0 -0 -0 0 0 0 0 -0 -0 -0 -0 -0 -0 -0 -0 -0 -0 -0 0 0 0 0 -0 -0 -0 -0 -0 -0 0
0 0 0 0 0 0 0 0 0 0 0 0 0 0 0 0 0 0 0 -0 -0 -0 0 0 0 0 0 0 0 0 0 0 0 0 0 0 0 0 0 -0 -0 0 0 0 -0 -0 0 -0 0
0 0 0 0 0 0 -0 -0 0 0 0 0 0 0 0 0 0 0 0 0 0 0 0 0 0 0 0 0 0 0 0 0 0 0 0 0 0 0 0 0 0 0 0 0 0 0 0 0 0
0 0 0 0 0 0 0 0 0 0 0 0 0 0 0 0 0 0 0 0 0 0 0 0 0 0 0 0 0 0 0 0 0 0 0 0 0 0 0 0 0 0 0 0 0 0 0 0 0
0 0 0 0 0 0 0 0 0 0 0 0 0 0 0 0 0 0 0 0 0 0 0 0 0 0 0 0 0 0 0 0 0 0 0 0 0 0 0 0 0 0 0 0 0 0 0 0 0
0 0 0 0 0 0 0 0 0 0 0 0 0 0 0 0 0 0 0 0 0 0 0 0 0 0 0 0 0 0 0 0 0 0 0 0 0 0 0 0 0 0 0 0 0 0 0 0 0
0 0 0 0 0 0 0 0 0 0 0 0 0 0 0 0 0 0 0 0 0 0 0 0 0 0 0 0 0 0 0 0 0 0 0 0 0 0 0 0 0 0 0 0 0 0 0 0 0
0 0 0 0 0 0 0 0 0 0 0 0 0 0 0 0 0 0 0 0 0 0 0 0 0 0 0 0 0 0 0 0 0 0 0 0 0 0 0 0 0 0 0 0 0 0 0 0 0
0 0 0 0 0 0 0 0 0 0 0 0 0 0 0 0 0 0 0 0 0 0 0 0 0 0 0 0 0 0 0 0 0 0 0 0 0 0 0 0 0 0 0 0 0 0 0 0 0
0 0 0 0 0 0 0 0 0 0 0 0 0 0 0 0 0 0 0 0 0 0 0 0 0 0 0 0 0 0 0 0 0 0 0 0 0 0 0 0 0 0 0 0 0 0 0 0 0
0 0 0 0 0 0 0 0 0 0 0 0 0 0 0 0 0 0 0 0 0 0 0 0 0 0 0 0 0 0 0 0 0 0 0 0 0 0 0 0 0 0 0 0 0 0 0 0 0
0 0 0 0 0 0 0 0 0 0 0 0 0 0 0 0 0 0 0 0 0 0 0 0 0 0 0 0 0 0 0 0 0 0 0 0 0 0 0 0 0 0 0 0 0 0 0 0 0
0 0 0 0 0 0 0 0 0 0 0 0 0 0 0 0 0 0 0 0 0 0 0 0 0 0 0 0 0 0 0 0 0 0 0 0 0 0 0 0 0 0 0 0 0 0 0 0 0
0 0 0 0 0 0 0 0 0 0 0 0 0 0 0 0 0 0 0 0 0 0 0 0 0 0 0 0 0 0 0 0 0 0 0 0 0 0 0 0 0 0 0 0 0 0 0 0 0
0 0 0 0 0 0 0 0 0 0 0 0 0 0 0 0 0 0 0 0 0 0 0 0 0 0 0 0 0 0 0 0 0 0 0 0 0 0 0 0 0 0 0 0 0 0 0 0 0
0 0 0 0 0 0 0 0 0 0 0 0 0 0 0 0 0 0 0 0 0 0 0 0 0 0 0 0 0 0 0 0 0 0 0 0 0 0 0 0 0 0 0 0 0 0 0 0 0
0 0 0 0 0 0 0 0 0 0 0 0 0 0 0 0 0 0 0 0 0 0 0 0 0 0 0 0 0 0 0 0 0 0 0 0 0 0 0 0 0 0 0 0 0 0 0 0 0
0 0 0 0 0 0 0 0 0 0 0 0 0 0 0 0 0 0 0 0 0 0 0 0 0 0 0 0 0 0 0 -0 -0 -0 -0 0 0 0 0 0 0 0 0 0 0 0 0 0 0
0 0 0 0 0 0 0 0 0 0 0 0 0 0 0 0 0 0 0 0 0 0 0 0 0 0 0 0 0 0 0 -0 -0 0 0 0 0 0 0 0 0 0 0 0 0 0 0 0 0
0 0 0 0 0 0 0 0 0 0 0 0 0 0 0 0 0 0 0 0 0 0 0 0 0 0 0 0 0 0 -0 -0 0 0 0 0 0 0 0 0 0 0 0 0 0 0 0 0 0
0 0 0 0 0 0 0 0 0 0 0 0 0 0 0 0 0 0 0 0 0 0 0 0 0 0 0 0 0 0 0 0 0 0 0 0 0 0 0 0 0 0 0 0 0 0 0 0 0
0 0 0 0 0 0 0 0 0 0 0 0 0 0 0 0 0 0 0 0 0 0 0 0 0 0 0 0 0 0 0 0 0 0 0 0 0 0 0 0 0 0 0 0 0 0 0 0 0
0 0 0 0 0 0 0 0 0 0 0 0 0 0 0 0 0 0 0 0 0 0 0 0 0 0 0 0 0 0 0 0 0 0 0 0 0 0 0 0 0 0 0 0 0 0 0 0 0
0 0 0 0 0 0 0 0 0 0 0 0 0 0 0 0 0 0 0 0 0 0 0 0 0 0 0 0 0 0 0 0 0 0 0 0 0 0 0 0 0 0 0 0 0 0 0 0 0
0 0 0 0 0 0 0 0 0 0 0 0 0 0 0 0 0 0 0 0 0 0 0 0 0 0 0 0 0 0 0 0 0 0 0 0 0 0 0 0 0 0 0 0 0 0 0 0 0
0 0 0 0 0 0 0 0 0 0 0 0 0 0 0 0 0 0 0 0 0 0 0 0 0 0 0 0 0 0 0 0 0 0 0 0 0 0 0 0 0 0 0 0 0 0 0 0 0
0 0 0 0 0 0 0 0 0 0 0 0 0 0 0 0 0 0 0 0 0 0 0 0 0 0 0 0 0 0 0 0 0 0 0 0 0 0 0 0 0 0 0 0 0 0 0 0 0
0 0 0 0 0 0 0 0 0 0 0 0 0 0 0 0 0 0 0 0 0 0 0 0 0 0 0 0 0 0 0 0 0 0 0 0 0 0 0 0 0 0 0 0 0 0 0 0 0
Wind_Speed_500mb
15 8 3 0 5 7 5 7 3 4 3 4 11 7 9 6 6 5 24 30 28 39 43 45 42 37 32 30 29 27 24 20 16 12 8 6 7 8 7 8 7 7 13 9 8 17 14 6 10
13 8 6 7 7 4 7 6 7 7 4 19 14 9 4 3 6 10 34 27 28 37 42 42 41 38 35 31 29 25 22 18 15 12 9 7 8 10 7 1 3 5 10 3 1 14 11 13 5
13 14 7 7 5 8 7 7 6 3 12 3 5 4 6 5 8 31 19 28 30 35 36 37 37 36 35 33 31 27 22 18 14 11 9 9 9 8 6 10 5 3 7 6 4 6 7 9 15
15 10 10 7 8 9 9 5 5 5 4 6 4 2 4 7 16 34 23 27 27 32 33 35 34 34 34 30 29 27 24 19 15 12 8 8 8 6 8 11 9 10 12 12 11 8 8 13 20
16 8 7 4 8 8 8 10 9 7 6 7 9 4 3 11 17 26 29 25 27 29 31 33 33 31 31 29 27 25 22 18 15 11 8 5 5 5 7 12 13 14 16 19 20 11 12 17 15
8 6 6 6 9 8 9 11 7 6 7 8 6 7 5 14 22 24 25 22 25 23 29 31 31 30 28 27 25 24 21 18 17 15 8 5 4 4 3 7 11 13 16 20 21 14 15 16 18
10 7 6 7 6 7 8 10 7 9 6 7 3 6 4 17 25 23 23 23 26 26 27 27 31 30 29 26 24 22 19 18 17 15 11 8 7 8 9 8 9 12 14 14 16 17 21 14 17
7 7 6 8 6 6 1 2 2 11 9 8 12 6 4 10 26 26 27 27 28 26 27 22 27 28 27 24 19 18 15 17 18 17 16 13 12 12 13 14 15 16 18 18 17 16 15 21 18
7 6 4 7 11 3 3 1 3 4 6 9 12 10 6 6 27 30 32 34 33 30 29 25 23 25 19 17 20 21 22 24 24 22 21 20 17 14 14 19 20 21 21 21 21 19 16 22 29
6 5 12 4 7 2 4 1 5 2 2 11 16 22 18 15 25 33 37 38 37 33 30 27 25 21 19 19 23 27 26 26 27 26 24 23 24 23 25 29 31 29 27 26 25 23 24 24 26
7 10 5 3 6 4 2 6 6 3 7 23 12 12 17 23 30 35 36 35 32 30 29 27 27 28 22 22 26 26 25 25 23 23 26 29 33 34 35 36 38 41 36 36 34 35 35 36 37
4 10 8 5 2 3 4 7 10 24 25 25 27 27 23 25 35 40 40 38 35 31 29 29 28 26 24 27 25 29 26 28 31 32 33 33 36 37 37 35 38 38 38 41 43 45 46 46 45
6 3 8 11 14 15 17 20 18 35 48 43 46 43 31 26 36 45 42 39 37 36 32 32 28 26 25 27 29 28 28 29 28 32 34 36 39 45 50 50 48 45 45 45 45 47 48 52 55
2 8 17 13 5 8 6 8 1 5 7 8 10 15 17 35 33 44 46 43 41 37 35 30 31 29 28 28 30 30 32 34 36 37 41 45 48 49 51 51 50 49 49 50 51 52 54 56 56
3 9 11 2 3 6 3 12 18 32 23 20 15 11 6 8 33 43 41 42 39 39 39 38 36 33 31 31 31 31 33 30 29 26 22 23 26 31 36 42 45 46 47 48 50 52 55 57 59
4 7 6 1 2 0 4 17 2 0 7 4 20 17 13 9 16 47 39 42 41 40 41 41 38 35 33 31 31 30 29 23 17 12 12 17 22 28 34 39 44 48 50 52 53 53 55 58 61
8 7 10 10 4 2 6 15 5 6 24 48 38 35 34 31 31 24 57 42 42 41 39 41 38 33 30 29 26 22 22 18 13 13 19 26 33 39 44 46 47 49 50 52 55 58 60 63 66
11 9 8 9 3 2 6 28 25 38 37 43 44 26 22 24 31 28 44 41 42 41 41 38 33 28 25 23 24 25 21 16 17 24 33 41 46 48 50 50 51 52 54 55 57 61 62 65 68
10 7 8 4 4 2 11 17 38 25 32 21 16 16 16 11 24 42 35 44 44 43 40 34 28 23 22 23 24 24 22 23 31 40 45 49 49 49 50 51 52 54 57 60 61 65 68 71 69
6 6 10 6 3 4 6 24 35 9 5 6 14 12 6 5 19 45 39 44 47 44 37 29 23 20 20 21 21 21 27 34 39 44 46 48 48 50 53 56 58 60 62 63 64 66 70 73 69
8 12 9 9 2 3 10 14 9 2 2 7 8 6 5 17 32 44 51 50 46 39 31 23 21 19 16 13 15 22 30 37 41 43 41 41 45 49 52 54 55 57 62 64 65 67 68 71 71
8 12 10 10 7 8 4 10 9 6 2 5 7 11 17 30 40 48 52 50 41 34 29 25 20 14 10 12 18 26 35 41 40 42 46 48 49 51 54 55 56 56 59 61 62 63 66 68 71
6 7 9 5 8 7 6 4 12 1 6 6 7 16 26 35 44 49 49 44 39 33 26 20 15 11 11 17 26 35 36 34 38 41 44 46 48 49 53 55 56 57 57 56 56 56 56 57 59
17 12 12 8 6 4 10 10 9 10 10 7 8 19 30 40 47 48 46 43 36 28 21 16 14 14 18 25 33 28 27 31 36 42 45 48 50 53 54 55 53 51 49 49 47 45 46 47 50
4 10 3 5 3 12 2 3 15 8 9 12 18 29 35 41 46 48 44 37 28 21 16 12 11 16 24 24 19 21 25 31 39 45 50 54 58 60 61 61 54 47 45 45 45 45 45 45 48
12 11 10 15 9 7 7 13 11 9 5 17 29 38 42 43 44 41 38 30 20 13 11 10 15 16 10 12 15 21 27 35 41 46 52 56 59 61 62 62 58 50 45 44 45 47 47 47 48
11 11 6 13 2 5 6 12 13 7 6 13 29 36 42 40 37 33 29 22 14 11 10 9 5 4 7 13 20 28 36 42 47 51 53 55 57 59 60 59 55 52 48 46 46 47 43 47 47
5 8 5 3 4 7 7 10 9 12 15 13 16 34 38 39 36 27 22 16 11 8 6 3 3 8 14 21 27 32 36 39 43 47 50 54 56 58 58 55 51 47 43 40 39 45 45 50 54
6 4 4 2 5 8 2 11 9 20 19 21 21 45 46 41 34 26 20 16 14 11 6 2 7 11 16 21 25 28 30 35 40 46 52 56 58 55 52 47 44 44 46 44 44 47 51 55 59
3 14 11 6 9 3 2 12 1 14 20 32 35 40 37 32 28 27 25 22 18 12 6 2 4 9 15 20 23 25 30 36 42 48 53 57 59 49 45 43 45 46 46 46 47 50 49 56 60
Wind_Direction_500mb
252 262 277 295 64 64 279 255 259 230 203 188 154 144 168 126 168 203 156 160 160 170 167 167 175 173 174 175 175 177 177 180 186 193 203 221 248 263 275 290 302 343 340 345 356 349 360 22 228
224 204 151 98 94 108 257 254 226 232 166 123 117 115 115 164 157 149 151 157 159 172 172 171 175 176 177 182 184 188 189 194 199 202 213 245 263 266 262 71 342 9 14 98 323 353 355 1 331
186 164 129 94 113 186 210 218 232 201 163 158 119 83 141 166 162 162 160 160 161 172 178 176 176 178 183 184 188 192 198 201 204 217 237 264 275 279 218 178 223 256 275 357 244 310 332 322 3
148 126 73 100 203 245 211 198 193 158 169 203 166 132 174 165 162 168 173 170 170 169 177 182 181 181 185 187 188 192 197 203 211 227 256 281 282 299 209 212 215 251 274 278 304 268 294 292 322
142 113 77 89 246 258 250 251 207 185 172 187 173 208 225 191 169 171 170 179 180 172 176 183 188 189 189 192 190 196 204 209 216 220 239 269 288 293 231 224 229 248 264 280 291 284 245 268 297
98 91 82 211 238 252 261 228 180 206 182 182 197 159 212 196 184 177 173 178 176 179 179 184 189 196 197 197 198 203 209 216 216 218 231 265 290 310 292 249 252 264 282 293 291 275 228 274 271
117 93 203 191 234 288 231 170 196 194 184 222 188 147 237 202 192 183 183 184 180 177 185 187 191 194 199 201 205 210 218 224 224 232 248 271 284 290 293 289 284 287 296 311 312 297 234 252 256
124 95 144 239 195 253 86 222 231 191 211 178 183 220 254 207 198 191 186 185 184 183 184 190 195 196 199 204 209 222 235 254 258 257 261 271 281 295 291 288 288 288 292 297 306 312 256 234 242
136 71 214 235 168 242 1 87 203 239 236 207 201 222 224 234 202 200 193 191 190 188 188 190 191 191 189 208 216 229 232 240 251 254 254 256 265 273 291 287 285 284 283 287 292 298 289 253 254
106 130 220 217 201 234 319 332 295 225 241 248 232 234 239 241 216 211 206 204 198 194 191 190 184 181 203 212 232 234 237 244 249 254 257 262 264 270 269 277 278 279 280 282 282 285 286 281 273
162 205 199 243 243 236 265 277 253 215 243 245 226 250 243 231 223 221 216 214 212 202 199 193 183 188 203 213 233 240 240 240 251 259 260 269 277 279 281 279 276 264 269 273 270 268 268 267 268
199 241 226 257 225 274 239 273 268 229 241 263 276 271 258 239 231 225 218 214 210 207 204 199 200 200 204 206 225 235 241 248 255 258 263 266 269 273 274 280 283 283 275 272 269 263 257 259 261
183 271 243 253 264 266 264 252 257 263 270 267 265 263 259 242 229 221 217 214 209 207 201 204 209 213 218 213 216 228 239 247 257 260 263 264 269 272 281 283 281 277 275 273 270 269 266 263 259
190 279 277 286 271 263 260 273 248 248 145 188 278 278 263 234 224 217 215 213 212 209 196 205 210 218 222 227 234 240 246 259 263 265 272 276 277 278 278 279 278 276 273 271 270 268 267 266 266
335 327 321 229 249 236 283 276 231 259 272 262 283 247 260 252 217 216 216 216 215 213 207 206 212 221 225 229 236 243 254 255 261 263 266 277 287 290 290 287 285 283 280 278 276 274 272 270 267
53 54 351 350 79 310 132 271 352 359 120 23 325 299 276 262 224 221 213 214 212 209 210 209 210 213 221 233 247 248 246 235 221 234 271 295 303 305 304 299 290 283 279 277 276 275 273 272 272
6 221 206 304 68 304 160 274 295 183 313 309 308 299 285 267 240 236 212 212 209 208 205 203 206 215 230 239 233 214 196 201 228 265 290 300 303 303 301 297 292 286 281 278 277 276 276 276 275
198 213 237 240 348 132 229 266 264 279 301 301 306 304 290 268 225 209 193 197 198 196 194 199 207 219 220 207 197 192 200 230 268 292 301 304 304 302 299 295 292 288 283 280 277 277 276 276 277
131 183 224 229 108 302 240 270 279 291 290 298 312 317 317 274 207 187 175 191 186 184 189 195 201 203 200 199 202 213 235 265 290 299 303 305 305 303 300 296 293 289 286 282 280 277 275 274 274
157 163 249 286 130 195 321 275 277 268 247 318 320 330 337 171 175 189 191 181 182 179 179 183 187 192 198 209 227 252 273 283 293 299 304 306 304 301 299 296 293 290 286 283 280 279 278 276 275
207 187 199 207 171 62 331 284 288 197 144 7 27 19 109 147 151 156 161 162 163 165 167 174 183 191 203 230 265 280 289 297 301 301 301 300 301 300 298 295 293 290 287 285 282 280 278 278 276
225 196 159 149 111 230 9 277 280 183 101 31 55 83 122 143 145 145 148 149 153 159 164 169 175 189 225 263 287 301 307 307 308 310 311 310 307 305 302 300 296 291 286 283 280 278 277 276 275
217 103 113 87 98 52 312 55 265 127 208 187 141 124 128 139 145 143 144 147 150 149 155 168 187 215 261 290 302 308 309 310 313 313 312 312 310 309 306 304 299 295 289 285 283 280 278 277 277
152 78 56 62 95 325 223 160 252 190 190 166 163 150 139 140 142 145 147 147 149 157 173 195 223 257 284 299 305 309 316 318 320 321 322 321 320 318 314 310 303 297 293 289 285 281 278 277 275
83 111 355 353 4 227 47 62 253 218 208 187 173 162 152 146 146 147 151 155 162 177 195 217 254 281 290 297 307 315 321 326 329 329 327 326 325 324 322 318 313 302 293 289 287 285 284 284 282
191 169 166 200 196 231 2 227 250 202 218 201 176 162 158 154 152 154 159 167 176 193 203 237 263 276 284 302 310 318 326 331 331 331 329 328 325 322 320 317 313 305 294 289 287 288 289 289 289
180 206 155 108 93 41 208 275 288 171 121 143 162 169 172 166 160 166 174 182 189 205 234 253 250 284 311 318 327 338 339 336 336 334 330 327 323 320 316 312 310 305 297 291 291 291 291 293 293
173 162 122 10 173 245 275 280 234 183 181 166 162 172 171 171 177 183 192 203 214 224 207 214 291 324 338 342 339 336 336 335 334 331 331 329 325 319 315 311 307 306 304 301 297 297 296 292 291
154 195 227 224 177 182 239 255 223 186 174 170 173 169 172 180 189 199 204 205 187 184 198 291 339 344 340 336 331 328 329 333 334 335 335 333 331 324 320 316 316 316 311 307 300 297 296 295 295
275 191 140 164 203 218 137 273 80 191 170 170 172 171 173 181 194 198 186 182 184 192 192 226 322 330 331 329 326 328 331 337 339 340 340 339 339 340 338 331 319 313 309 307 300 298 300 300 297
Wind_Speed_850mb
15 8 3 0 5 7 5 7 3 4 3 4 11 7 9 6 6 5 24 30 28 39 43 45 42 37 32 30 29 27 24 20 16 12 8 6 7 8 7 8 7 7 13 9 8 17 14 6 10
13 8 6 7 7 4 7 6 7 7 4 19 14 9 4 3 6 10 34 27 28 37 42 42 41 38 35 31 29 25 22 18 15 12 9 7 8 10 7 1 3 5 10 3 1 14 11 13 5
13 14 7 7 5 8 7 7 6 3 12 3 5 4 6 5 8 31 19 28 30 35 36 37 37 36 35 33 31 27 22 18 14 11 9 9 9 8 6 10 5 3 7 6 4 6 7 9 15
15 10 10 7 8 9 9 5 5 5 4 6 4 2 4 7 16 34 23 27 27 32 33 35 34 34 34 30 29 27 24 19 15 12 8 8 8 6 8 11 9 10 12 12 11 8 8 13 20
16 8 7 4 8 8 8 10 9 7 6 7 9 4 3 11 17 26 29 25 27 29 31 33 33 31 31 29 27 25 22 18 15 11 8 5 5 5 7 12 13 14 16 19 20 11 12 17 15
8 6 6 6 9 8 9 11 7 6 7 8 6 7 5 14 22 24 25 22 25 23 29 31 31 30 28 27 25 24 21 18 17 15 8 5 4 4 3 7 11 13 16 20 21 14 15 16 18
10 7 6 7 6 7 8 10 7 9 6 7 3 6 4 17 25 23 23 23 26 26 27 27 31 30 29 26 24 22 19 18 17 15 11 8 7 8 9 8 9 12 14 14 16 17 21 14 17
7 7 6 8 6 6 1 2 2 11 9 8 12 6 4 10 26 26 27 27 28 26 27 22 27 28 27 24 19 18 15 17 18 17 16 13 12 12 13 14 15 16 18 18 17 16 15 21 18
7 6 4 7 11 3 3 1 3 4 6 9 12 10 6 6 27 30 32 34 33 30 29 25 23 25 19 17 20 21 22 24 24 22 21 20 17 14 14 19 20 21 21 21 21 19 16 22 29
6 5 12 4 7 2 4 1 5 2 2 11 16 22 18 15 25 33 37 38 37 33 30 27 25 21 19 19 23 27 26 26 27 26 24 23 24 23 25 29 31 29 27 26 25 23 24 24 26
7 10 5 3 6 4 2 6 6 3 7 23 12 12 17 23 30 35 36 35 32 30 29 27 27 28 22 22 26 26 25 25 23 23 26 29 33 34 35 36 38 41 36 36 34 35 35 36 37
4 10 8 5 2 3 4 7 10 24 25 25 27 27 23 25 35 40 40 38 35 31 29 29 28 26 24 27 25 29 26 28 31 32 33 33 36 37 37 35 38 38 38 41 43 45 46 46 45
6 3 8 11 14 15 17 20 18 35 48 43 46 43 31 26 36 45 42 39 37 36 32 32 28 26 25 27 29 28 28 29 28 32 34 36 39 45 50 50 48 45 45 45 45 47 48 52 55
2 8 17 13 5 8 6 8 1 5 7 8 10 15 17 35 33 44 46 43 41 37 35 30 31 29 28 28 30 30 32 34 36 37 41 45 48 49 51 51 50 49 49 50 51 52 54 56 56
3 9 11 2 3 6 3 12 18 32 23 20 15 11 6 8 33 43 41 42 39 39 39 38 36 33 31 31 31 31 33 30 29 26 22 23 26 31 36 42 45 46 47 48 50 52 55 57 59
4 7 6 1 2 0 4 17 2 0 7 4 20 17 13 9 16 47 39 42 41 40 41 41 38 35 33 31 31 30 29 23 17 12 12 17 22 28 34 39 44 48 50 52 53 53 55 58 61
8 7 10 10 4 2 6 15 5 6 24 48 38 35 34 31 31 24 57 42 42 41 39 41 38 33 30 29 26 22 22 18 13 13 19 26 33 39 44 46 47 49 50 52 55 58 60 63 66
11 9 8 9 3 2 6 28 25 38 37 43 44 26 22 24 31 28 44 41 42 41 41 38 33 28 25 23 24 25 21 16 17 24 33 41 46 48 50 50 51 52 54 55 57 61 62 65 68
10 7 8 4 4 2 11 17 38 25 32 21 16 16 16 11 24 42 35 44 44 43 40 34 28 23 22 23 24 24 22 23 31 40 45 49 49 49 50 51 52 54 57 60 61 65 68 71 69
6 6 10 6 3 4 6 24 35 9 5 6 14 12 6 5 19 45 39 44 47 44 37 29 23 20 20 21 21 21 27 34 39 44 46 48 48 50 53 56 58 60 62 63 64 66 70 73 69
8 12 9 9 2 3 10 14 9 2 2 7 8 6 5 17 32 44 51 50 46 39 31 23 21 19 16 13 15 22 30 37 41 43 41 41 45 49 52 54 55 57 62 64 65 67 68 71 71
8 12 10 10 7 8 4 10 9 6 2 5 7 11 17 30 40 48 52 50 41 34 29 25 20 14 10 12 18 26 35 41 40 42 46 48 49 51 54 55 56 56 59 61 62 63 66 68 71
6 7 9 5 8 7 6 4 12 1 6 6 7 16 26 35 44 49 49 44 39 33 26 20 15 11 11 17 26 35 36 34 38 41 44 46 48 49 53 55 56 57 57 56 56 56 56 57 59
17 12 12 8 6 4 10 10 9 10 10 7 8 19 30 40 47 48 46 43 36 28 21 16 14 14 18 25 33 28 27 31 36 42 45 48 50 53 54 55 53 51 49 49 47 45 46 47 50
4 10 3 5 3 12 2 3 15 8 9 12 18 29 35 41 46 48 44 37 28 21 16 12 11 16 24 24 19 21 25 31 39 45 50 54 58 60 61 61 54 47 45 45 45 45 45 45 48
12 11 10 15 9 7 7 13 11 9 5 17 29 38 42 43 44 41 38 30 20 13 11 10 15 16 10 12 15 21 27 35 41 46 52 56 59 61 62 62 58 50 45 44 45 47 47 47 48
11 11 6 13 2 5 6 12 13 7 6 13 29 36 42 40 37 33 29 22 14 11 10 9 5 4 7 13 20 28 36 42 47 51 53 55 57 59 60 59 55 52 48 46 46 47 43 47 47
5 8 5 3 4 7 7 10 9 12 15 13 16 34 38 39 36 27 22 16 11 8 6 3 3 8 14 21 27 32 36 39 43 47 50 54 56 58 58 55 51 47 43 40 39 45 45 50 54
6 4 4 2 5 8 2 11 9 20 19 21 21 45 46 41 34 26 20 16 14 11 6 2 7 11 16 21 25 28 30 35 40 46 52 56 58 55 52 47 44 44 46 44 44 47 51 55 59
3 14 11 6 9 3 2 12 1 14 20 32 35 40 37 32 28 27 25 22 18 12 6 2 4 9 15 20 23 25 30 36 42 48 53 57 59 49 45 43 45 46 46 46 47 50 49 56 60
Wind_Direction_850mb
252 262 277 295 64 64 279 255 259 230 203 188 154 144 168 126 168 203 156 160 160 170 167 167 175 173 174 175 175 177 177 180 186 193 203 221 248 263 275 290 302 343 340 345 356 349 360 22 228
224 204 151 98 94 108 257 254 226 232 166 123 117 115 115 164 157 149 151 157 159 172 172 171 175 176 177 182 184 188 189 194 199 202 213 245 263 266 262 71 342 9 14 98 323 353 355 1 331
186 164 129 94 113 186 210 218 232 201 163 158 119 83 141 166 162 162 160 160 161 172 178 176 176 178 183 184 188 192 198 201 204 217 237 264 275 279 218 178 223 256 275 357 244 310 332 322 3
148 126 73 100 203 245 211 198 193 158 169 203 166 132 174 165 162 168 173 170 170 169 177 182 181 181 185 187 188 192 197 203 211 227 256 281 282 299 209 212 215 251 274 278 304 268 294 292 322
142 113 77 89 246 258 250 251 207 185 172 187 173 208 225 191 169 171 170 179 180 172 176 183 188 189 189 192 190 196 204 209 216 220 239 269 288 293 231 224 229 248 264 280 291 284 245 268 297
98 91 82 211 238 252 261 228 180 206 182 182 197 159 212 196 184 177 173 178 176 179 179 184 189 196 197 197 198 203 209 216 216 218 231 265 290 310 292 249 252 264 282 293 291 275 228 274 271
117 93 203 191 234 288 231 170 196 194 184 222 188 147 237 202 192 183 183 184 180 177 185 187 191 194 199 201 205 210 218 224 224 232 248 271 284 290 293 289 284 287 296 311 312 297 234 252 256
124 95 144 239 195 253 86 222 231 191 211 178 183 220 254 207 198 191 186 185 184 183 184 190 195 196 199 204 209 222 235 254 258 257 261 271 281 295 291 288 288 288 292 297 306 312 256 234 242
136 71 214 235 168 242 1 87 203 239 236 207 201 222 224 234 202 200 193 191 190 188 188 190 191 191 189 208 216 229 232 240 251 254 254 256 265 273 291 287 285 284 283 287 292 298 289 253 254
106 130 220 217 201 234 319 332 295 225 241 248 232 234 239 241 216 211 206 204 198 194 191 190 184 181 203 212 232 234 237 244 249 254 257 262 264 270 269 277 278 279 280 282 282 285 286 281 273
162 205 199 243 243 236 265 277 253 215 243 245 226 250 243 231 223 221 216 214 212 202 199 193 183 188 203 213 233 240 240 240 251 259 260 269 277 279 281 279 276 264 269 273 270 268 268 267 268
199 241 226 257 225 274 239 273 268 229 241 263 276 271 258 239 231 225 218 214 210 207 204 199 200 200 204 206 225 235 241 248 255 258 263 266 269 273 274 280 283 283 275 272 269 263 257 259 261
183 271 243 253 264 266 264 252 257 263 270 267 265 263 259 242 229 221 217 214 209 207 201 204 209 213 218 213 216 228 239 247 257 260 263 264 269 272 281 283 281 277 275 273 270 269 266 263 259
190 279 277 286 271 263 260 273 248 248 145 188 278 278 263 234 224 217 215 213 212 209 196 205 210 218 222 227 234 240 246 259 263 265 272 276 277 278 278 279 278 276 273 271 270 268 267 266 266
335 327 321 229 249 236 283 276 231 259 272 262 283 247 260 252 217 216 216 216 215 213 207 206 212 221 225 229 236 243 254 255 261 263 266 277 287 290 290 287 285 283 280 278 276 274 272 270 267
53 54 351 350 79 310 132 271 352 359 120 23 325 299 276 262 224 221 213 214 212 209 210 209 210 213 221 233 247 248 246 235 221 234 271 295 303 305 304 299 290 283 279 277 276 275 273 272 272
6 221 206 304 68 304 160 274 295 183 313 309 308 299 285 267 240 236 212 212 209 208 205 203 206 215 230 239 233 214 196 201 228 265 290 300 303 303 301 297 292 286 281 278 277 276 276 276 275
198 213 237 240 348 132 229 266 264 279 301 301 306 304 290 268 225 209 193 197 198 196 194 199 207 219 220 207 197 192 200 230 268 292 301 304 304 302 299 295 292 288 283 280 277 277 276 276 277
131 183 224 229 108 302 240 270 279 291 290 298 312 317 317 274 207 187 175 191 186 184 189 195 201 203 200 199 202 213 235 265 290 299 303 305 305 303 300 296 293 289 286 282 280 277 275 274 274
157 163 249 286 130 195 321 275 277 268 247 318 320 330 337 171 175 189 191 181 182 179 179 183 187 192 198 209 227 252 273 283 293 299 304 306 304 301 299 296 293 290 286 283 280 279 278 276 275
207 187 199 207 171 62 331 284 288 197 144 7 27 19 109 147 151 156 161 162 163 165 167 174 183 191 203 230 265 280 289 297 301 301 301 300 301 300 298 295 293 290 287 285 282 280 278 278 276
225 196 159 149 111 230 9 277 280 183 101 31 55 83 122 143 145 145 148 149 153 159 164 169 175 189 225 263 287 301 307 307 308 310 311 310 307 305 302 300 296 291 286 283 280 278 277 276 275
217 103 113 87 98 52 312 55 265 127 208 187 141 124 128 139 145 143 144 147 150 149 155 168 187 215 261 290 302 308 309 310 313 313 312 312 310 309 306 304 299 295 289 285 283 280 278 277 277
152 78 56 62 95 325 223 160 252 190 190 166 163 150 139 140 142 145 147 147 149 157 173 195 223 257 284 299 305 309 316 318 320 321 322 321 320 318 314 310 303 297 293 289 285 281 278 277 275
83 111 355 353 4 227 47 62 253 218 208 187 173 162 152 146 146 147 151 155 162 177 195 217 254 281 290 297 307 315 321 326 329 329 327 326 325 324 322 318 313 302 293 289 287 285 284 284 282
191 169 166 200 196 231 2 227 250 202 218 201 176 162 158 154 152 154 159 167 176 193 203 237 263 276 284 302 310 318 326 331 331 331 329 328 325 322 320 317 313 305 294 289 287 288 289 289 289
180 206 155 108 93 41 208 275 288 171 121 143 162 169 172 166 160 166 174 182 189 205 234 253 250 284 311 318 327 338 339 336 336 334 330 327 323 320 316 312 310 305 297 291 291 291 291 293 293
173 162 122 10 173 245 275 280 234 183 181 166 162 172 171 171 177 183 192 203 214 224 207 214 291 324 338 342 339 336 336 335 334 331 331 329 325 319 315 311 307 306 304 301 297 297 296 292 291
154 195 227 224 177 182 239 255 223 186 174 170 173 169 172 180 189 199 204 205 187 184 198 291 339 344 340 336 331 328 329 333 334 335 335 333 331 324 320 316 316 316 311 307 300 297 296 295 295
275 191 140 164 203 218 137 273 80 191 170 170 172 171 173 181 194 198 186 182 184 192 192 226 322 330 331 329 326 328 331 337 339 340 340 339 339 340 338 331 319 313 309 307 300 298 300 300 297